Weather in Gubkin

Russia / Belgorod Oblast     51°17′01″N   37°32′05″E
temp.,
°C
wind,
m/s
gust,
m/s
humid.,
%
clouds,
%
prec.,
mm/h
press.,
hPa
HPBL,
m
20 april, tue
tue2000:00+9e4882100 0.6 1015207
03:00+7ne4793100 0.7 1014246
06:00+7e4894100 0.0 1013340
09:00+9e61091100 0.1 1012600
12:00+11e6879100 0.4 1010948
15:00+10ene7982100 0.9 1008903
18:00+7ene71293100 3.7 1005621
21:00+6ne71294100 9.2 1003592
21 april, wed
wed2100:00+6ne5894100 1.5 1001475
03:00+5nnw5895100 5.1 1001356
06:00+5wnw5992100 1.3 1004603
09:00+6w4688100 1.4 1008519
12:00+8sw4682100 0.1 10101000
15:00+8sw3788100 0.1 1012623
18:00+10w48715 0.5 10131129
21:00+6ssw379099 0.9 1015138
22 april, thu
thu2200:00+5sw369337 0.2 1016123
03:00+4wsw23945 0.2 101755
06:00+4sw23925 0.0 101863
09:00+10ssw46675 0.0 1019526
12:00+14ssw5752100 0.0 10191634
15:00+14ssw675694 0.4 10191662
18:00+13ssw36667 0.8 1019586
21:00+10ssw377895 0.8 1020123
23 april, fri
fri2300:00+9s36816 0.0 102098
03:00+9s3977100 0.0 1020179
06:00+9s3777100 0.0 1020161
09:00+13s5865100 0.0 1020463
12:00+16s794816 0.2 10192155
15:00+17ssw674280 0.4 10172468
18:00+14sse47616 0.2 1016263
21:00+10sse367740 0.5 1016114
24 april, sat
sat2400:00+9s4128169 0.1 1014284
03:00+8ssw2390100 0.4 101371
06:00+8s3894100 0.6 1012319
09:00+3wnw61096100 2.9 1013503
12:00+7wnw6877100 3.3 10141028
15:00+11w81040100 3.7 10132777
18:00+8w610595 0.3 10141859
21:00+4w410737 0.3 1016311